Showing default

LYNK TOWER 6, 59123

Orbit data source: Space-Track

LYNK TOWER 6, 59123 is a payload satellite owned by Lynk (US) in SSO that was launched on Mon, 04 Mar 2024 UTC via an FALCON 9 launch vehicle from the Air Force Western Test Range (AFWTR). Payloads include a variety of satellites, spacecraft, and rockets equipped with specific instruments for various scientific and technological missions. These include communications satellites like Starlink; space stations such as the ISS; scientific satellites like the Hubble; Earth observation satellites from companies like Planet Labs, Umbra, and HawkEye 360; GPS; miniature CubeSats for education and research; and military/defense satellites.

Loading next visibility...
LYNK TOWER 6 details
Identifier
59123, 2024-043AB
Orbit
SSO
Last TLE update17 hours ago
Origin
Flag of USLynk (US)
ManufacturerLynk
MissionOperational Commercial Communications
Bus & MotorLYNK SHANNON, Unknown motor
Mass~85 kg wet, ~85 kg dry
Launch date (UTC)
2024-03-04 (11 months ago)
Launch vehicle
FALCON 9
Launch site
Air Force Western Test Range (AFWTR)
Object type
Payload
Rocket body
Debris
Shape & HBRBox, 1 m
Radar Cross Section0.650 m², Medium (>0.1 m² and < 1m²)

Expand to show TLE details & history

TLE from 17 hours ago
0 LYNK TOWER 6
1 59123U 24043AB  25042.91098739  .00011695  00000-0  50947-3 0  9992
2 59123  97.4957 170.7500 0012354 170.9564 189.1897 15.22296056 52211
Epoch: 2025-02-11T21:51Z
Definitive object data (Epoch: 2025-02-11T21:51:49.31Z)
Latitude-0.00003°
Longitude60.58552°
Altitude510.397 km
Speed7.604 km/s
True Right ascension11h 23m 00s
True Declination0° 00' 00"
Sunlit
Object was in full shadow at TLE epoch
Visualization TLE readout
Latitude-3.28075°
Longitude-119.15562°
Altitude494.22 km
Speed7.622 km/s
Apparent Right ascension01h 36m 58s
Apparent Declination-26° 40' 54"
Sunlit
Object is in daylight
Visualization observer readout
Local Sidereal Time16:57:33
Azimuth88.078° E
Elevation-46.662°
Doppler factor1
Orbital elements
Apogee altitude504.376 km
Perigee altitude487.391 km
Semi-major axis6,874.021 km
Eccentricity0.0012354
Inclination97.4957°
RAAN170.75°
Arg. of periapsis170.9564°
True anomaly189.16713°
Mean anomaly189.1897°
Eccentric anomaly189.17841°
Mean motion3.80826 °/min
BSTAR0.00050947
Orbital period94.53 mins
Loading maneuver chart data...
Loading historical data...
Loading historical data...
Loading historical data...
Loading historical data...
Loading historical data...
Loading historical data...
Loading historical data...

LYNK TOWER 6 Visibility forecast

Observer location: undefined°, undefined

Span
Click to sort rows by Start time (UTC) header in descending order
Start Az.
Max El. time (UTC)
Max El. Az.
Max El.
End time (UTC)
End Az.
5 mins2025-02-12 20:31:28.327Z46.286° ENE2025-02-12 20:34:28.327Z106.235° ESE19.763°2025-02-12 20:36:28.327Z142.915° SSE
5 mins2025-02-13 08:42:28.327Z188.449° SSW2025-02-13 08:44:28.327Z247.193° WSW39.143°2025-02-13 08:47:28.327Z335.58° NNW
|